When you browse on this site, cookies collect data to enhance your experience and personalize the content and advertising you see.
Visit our Privacy Policy to learn more. By continuing to use the site, you agree to this use of cookies and data.
  • In Hungary
  • List of Countries
  • For 7 days
  • Water Temperature
  • Satellite Maps
  • Weather Map
  • News
  • Weather Widgets
  • user-avatar
    Login

    Hourly Weather Dobeln

    Today, 16 June, Sunday

    Time Temperature Precipitation Wind Pressure Humidity
    00:00 +18°C° 0 mm 2 mps 741 mmHg 89%
    01:00 +17°C° 0 mm 2 mps 741 mmHg 89%
    02:00 +16°C° 0 mm 2 mps 741 mmHg 91%
    03:00 +15°C° 0 mm 2 mps 741 mmHg 93%
    04:00 +15°C° 0 mm 2 mps 741 mmHg 96%
    05:00 +15°C° 0 mm 2 mps 742 mmHg 92%
    06:00 +16°C° 0 mm 2 mps 742 mmHg 88%
    07:00 +17°C° 0 mm 2 mps 743 mmHg 84%
    08:00 +18°C° 0 mm 2 mps 743 mmHg 79%
    09:00 +19°C° 0 mm 2 mps 743 mmHg 74%
    10:00 +20°C° 0 mm 3 mps 744 mmHg 68%
    11:00 +20°C° 0 mm 2 mps 744 mmHg 66%
    12:00 +21°C° 0 mm 2 mps 744 mmHg 64%
    13:00 +21°C° 0 mm 2 mps 744 mmHg 62%
    14:00 +21°C° 0 mm 2 mps 744 mmHg 62%
    15:00 +23°C° 0 mm 1 mps 744 mmHg 63%
    16:00 +23°C° 0 mm 1 mps 744 mmHg 63%
    17:00 +22°C° 0.2 mm 1 mps 744 mmHg 68%
    18:00 +21°C° 0.2 mm 1 mps 744 mmHg 73%
    19:00 +21°C° 0.2 mm 1 mps 744 mmHg 78%
    20:00 +20°C° 0 mm 1 mps 744 mmHg 79%
    21:00 +19°C° 0 mm 1 mps 744 mmHg 80%
    22:00 +18°C° 0 mm 1 mps 745 mmHg 80%
    23:00 +18°C° 0 mm 1 mps 745 mmHg 82%

    Tomorrow, 17 June, Monday

    Time Temperature Precipitation Wind Pressure Humidity
    00:00 +16°C° 0 mm 1 mps 745 mmHg 84%
    01:00 +15°C° 0 mm 1 mps 745 mmHg 85%
    02:00 +15°C° 0 mm 1 mps 745 mmHg 86%
    03:00 +15°C° 0 mm 1 mps 744 mmHg 86%
    04:00 +14°C° 0 mm 1 mps 744 mmHg 87%
    05:00 +16°C° 0 mm 1 mps 745 mmHg 83%
    06:00 +18°C° 0 mm 1 mps 745 mmHg 79%
    07:00 +20°C° 0 mm 1 mps 745 mmHg 75%
    08:00 +21°C° 0 mm 1 mps 745 mmHg 71%
    09:00 +21°C° 0 mm 2 mps 745 mmHg 66%
    10:00 +24°C° 0 mm 2 mps 745 mmHg 62%
    11:00 +24°C° 0.1 mm 2 mps 745 mmHg 60%
    12:00 +25°C° 0.1 mm 2 mps 745 mmHg 58%
    13:00 +26°C° 0.1 mm 3 mps 745 mmHg 55%
    14:00 +26°C° 0.1 mm 3 mps 744 mmHg 56%
    15:00 +26°C° 0.1 mm 3 mps 744 mmHg 57%
    16:00 +26°C° 0.1 mm 3 mps 743 mmHg 58%
    17:00 +25°C° 0.1 mm 3 mps 743 mmHg 64%
    18:00 +24°C° 0.1 mm 3 mps 743 mmHg 70%
    19:00 +22°C° 0.1 mm 3 mps 743 mmHg 76%
    20:00 +20°C° 0 mm 3 mps 743 mmHg 77%
    21:00 +19°C° 0 mm 3 mps 743 mmHg 78%
    22:00 +18°C° 0 mm 3 mps 743 mmHg 80%
    23:00 +17°C° 0 mm 2 mps 743 mmHg 80%

    Day after tomorrow, 18 June, Tuesday

    Time Temperature Precipitation Wind Pressure Humidity
    00:00 +16°C° 0 mm 2 mps 743 mmHg 81%
    01:00 +16°C° 0 mm 2 mps 743 mmHg 82%
    02:00 +15°C° 0 mm 2 mps 743 mmHg 82%
    03:00 +15°C° 0 mm 2 mps 743 mmHg 82%
    04:00 +15°C° 0 mm 1 mps 742 mmHg 83%
    05:00 +16°C° 0 mm 1 mps 743 mmHg 79%
    06:00 +19°C° 0 mm 1 mps 743 mmHg 75%
    07:00 +20°C° 0 mm 1 mps 743 mmHg 71%
    08:00 +22°C° 0 mm 1 mps 743 mmHg 66%
    09:00 +23°C° 0 mm 2 mps 742 mmHg 62%
    10:00 +25°C° 0 mm 2 mps 742 mmHg 57%
    11:00 +25°C° 0 mm 2 mps 742 mmHg 55%
    12:00 +26°C° 0 mm 2 mps 741 mmHg 53%
    13:00 +27°C° 0 mm 3 mps 741 mmHg 50%
    14:00 +27°C° 0 mm 3 mps 741 mmHg 51%
    15:00 +27°C° 0 mm 3 mps 740 mmHg 52%
    16:00 +28°C° 0 mm 3 mps 740 mmHg 52%
    17:00 +27°C° 0 mm 3 mps 740 mmHg 59%
    18:00 +25°C° 0 mm 2 mps 740 mmHg 66%
    19:00 +24°C° 0 mm 2 mps 739 mmHg 73%
    20:00 +23°C° 0 mm 2 mps 739 mmHg 76%
    21:00 +20°C° 0 mm 2 mps 739 mmHg 79%
    22:00 +19°C° 0 mm 2 mps 740 mmHg 83%
    23:00 +19°C° 0 mm 2 mps 739 mmHg 84%

    19 June, Wednesday

    Time Temperature Precipitation Wind Pressure Humidity
    00:00 +18°C° 0 mm 2 mps 739 mmHg 86%
    01:00 +19°C° 0 mm 1 mps 739 mmHg 88%
    02:00 +19°C° 0 mm 1 mps 738 mmHg 88%
    03:00 +19°C° 0 mm 1 mps 738 mmHg 89%
    04:00 +19°C° 0 mm 1 mps 738 mmHg 90%
    05:00 +20°C° 0 mm 1 mps 738 mmHg 86%
    06:00 +21°C° 0 mm 1 mps 738 mmHg 82%
    07:00 +23°C° 0 mm 1 mps 738 mmHg 78%
    08:00 +24°C° 0 mm 1 mps 738 mmHg 73%
    09:00 +26°C° 0 mm 1 mps 738 mmHg 68%
    10:00 +27°C° 0 mm 1 mps 738 mmHg 62%
    11:00 +28°C° 0.3 mm 1 mps 738 mmHg 59%
    12:00 +29°C° 0.3 mm 2 mps 737 mmHg 56%
    13:00 +29°C° 0.3 mm 3 mps 737 mmHg 53%
    14:00 +30°C° 0 mm 3 mps 737 mmHg 52%
    15:00 +30°C° 0 mm 3 mps 737 mmHg 51%
    16:00 +30°C° 0 mm 3 mps 737 mmHg 50%
    17:00 +29°C° 0 mm 2 mps 736 mmHg 55%
    18:00 +28°C° 0 mm 2 mps 736 mmHg 60%
    19:00 +26°C° 0 mm 1 mps 736 mmHg 66%
    20:00 +25°C° 0 mm 1 mps 736 mmHg 66%
    21:00 +24°C° 0 mm 2 mps 736 mmHg 66%
    22:00 +21°C° 0 mm 2 mps 736 mmHg 66%
    23:00 +21°C° 0 mm 2 mps 736 mmHg 68%

    20 June, Thursday

    Time Temperature Precipitation Wind Pressure Humidity
    00:00 +20°C° 0 mm 2 mps 736 mmHg 69%
    01:00 +20°C° 0 mm 3 mps 736 mmHg 71%
    02:00 +20°C° 0 mm 3 mps 737 mmHg 70%
    03:00 +19°C° 0 mm 3 mps 737 mmHg 68%
    04:00 +19°C° 0 mm 4 mps 737 mmHg 67%
    05:00 +20°C° 0 mm 4 mps 737 mmHg 68%
    06:00 +21°C° 0 mm 4 mps 737 mmHg 70%
    07:00 +22°C° 0 mm 4 mps 738 mmHg 71%
    08:00 +22°C° 0 mm 4 mps 738 mmHg 70%
    09:00 +23°C° 0 mm 4 mps 738 mmHg 69%
    10:00 +25°C° 0 mm 4 mps 739 mmHg 67%
    11:00 +26°C° 0 mm 3 mps 739 mmHg 64%
    12:00 +27°C° 0 mm 3 mps 739 mmHg 60%
    13:00 +28°C° 0 mm 3 mps 739 mmHg 57%
    14:00 +28°C° 0.2 mm 3 mps 739 mmHg 56%
    15:00 +28°C° 0.2 mm 3 mps 739 mmHg 56%
    16:00 +28°C° 0.2 mm 2 mps 739 mmHg 55%
    17:00 +27°C° 0.5 mm 2 mps 739 mmHg 63%
    18:00 +25°C° 0.5 mm 2 mps 739 mmHg 70%
    19:00 +24°C° 0.5 mm 2 mps 739 mmHg 77%
    20:00 +21°C° 0 mm 2 mps 739 mmHg 81%
    21:00 +21°C° 0 mm 1 mps 739 mmHg 84%
    22:00 +19°C° 0 mm 1 mps 739 mmHg 88%
    23:00 +19°C° 0 mm 1 mps 740 mmHg 89%

    21 June, Friday

    Time Temperature Precipitation Wind Pressure Humidity
    00:00 +16°C° 0 mm 0 mps 740 mmHg 89%
    01:00 +16°C° 0 mm 0 mps 740 mmHg 90%
    02:00 +18°C° 0 mm 1 mps 740 mmHg 91%
    03:00 +16°C° 0 mm 1 mps 740 mmHg 92%
    04:00 +16°C° 0 mm 1 mps 740 mmHg 92%
    05:00 +18°C° 0 mm 1 mps 740 mmHg 90%
    06:00 +19°C° 0 mm 2 mps 740 mmHg 87%
    07:00 +20°C° 0 mm 2 mps 740 mmHg 85%
    08:00 +20°C° 0.9 mm 2 mps 740 mmHg 86%
    09:00 +20°C° 0.9 mm 2 mps 740 mmHg 87%
    10:00 +20°C° 0.9 mm 2 mps 740 mmHg 89%
    11:00 +20°C° 3.3 mm 3 mps 740 mmHg 91%
    12:00 +19°C° 3.3 mm 3 mps 740 mmHg 93%
    13:00 +18°C° 3.3 mm 3 mps 740 mmHg 96%
    14:00 +18°C° 0.2 mm 3 mps 740 mmHg 96%
    15:00 +18°C° 0.2 mm 3 mps 740 mmHg 96%
    16:00 +18°C° 0.2 mm 3 mps 740 mmHg 96%
    17:00 +18°C° 0 mm 2 mps 740 mmHg 94%
    18:00 +18°C° 0 mm 2 mps 740 mmHg 93%
    19:00 +18°C° 0 mm 2 mps 740 mmHg 91%
    20:00 +18°C° 0 mm 1 mps 740 mmHg 93%
    21:00 +16°C° 0 mm 1 mps 740 mmHg 95%
    22:00 +15°C° 0 mm 1 mps 740 mmHg 97%
    23:00 +15°C° 0 mm 1 mps 740 mmHg 97%
    Show more